Enid, OK

10:42 PM CDT on May 22, 2017 (GMT -0500)
Enid Woodring Municipal

Weather History for KWDG - March, 2012

Change the Weather History Date:

Saturday, March 10, 2012

  Actual Average Record
Temperature  
Mean Temperature 48 °F -  
Max Temperature 62 °F 54 °F 77 °F (2014)
Min Temperature 33 °F 34 °F 14 °F (1998)
Degree Days  
Heating Degree Days 18    
Moisture  
Dew Point 37 °F    
Average Humidity 82    
Maximum Humidity 93    
Minimum Humidity 34    
Precipitation  
Precipitation 0.00 in - - ()
Sea Level Pressure  
Sea Level Pressure 30.24 in    
Wind  
Wind Speed 3 mph (South)    
Max Wind Speed 17 mph    
Max Gust Speed 16 mph    
Visibility 10 miles    
Events      
Averages and records for this station are not official NWS values.
T = Trace of Precipitation, MM = Missing Value Source: NWS Daily Summary

Daily Weather History Graph

Daily Weather History Graph

Search for Another Location

Airport or City:

Trip Planner

Search our weather history database for the weather conditions in past years. The results will help you decide how hot, cold, wet, or windy it might be!

Date:

Astronomy

Mar. 10, 2012 Rise Set
Actual Time 6:48 AM CST 6:34 PM CST
Civil Twilight 6:22 AM CST 7:00 PM CST
Nautical Twilight 5:52 AM CST 7:30 PM CST
Astronomical Twilight 5:22 AM CST 8:00 PM CST
Moon 9:40 PM CST (3/10) 7:51 AM CST (3/10)
Length of Visible Light 12h 37m
Length of Day
11h 46m
Waning Gibbous, 92% of the Moon is Illuminated
Mar 10
Waning Gibbous
Mar 14
Last Quarter
Mar 22
New
Mar 30
First Quarter
Apr 6
Full

Hourly Weather History & Observations

Time (CST) Temp. Windchill Dew Point Humidity Pressure Visibility Wind Dir Wind Speed Gust Speed Precip Events Conditions
12:15 AM 41.0 °F - 32.0 °F 70% 30.38 in 10.0 mi Calm Calm - N/A   Clear
12:55 AM 37.4 °F - 32.0 °F 81% 30.38 in 10.0 mi Calm Calm - N/A   Clear
1:15 AM 35.6 °F - 32.0 °F 87% 30.37 in 10.0 mi Calm Calm - N/A   Clear
1:35 AM 37.4 °F 34.9 °F 32.0 °F 81% 30.37 in 10.0 mi South 3.5 mph - N/A   Clear
1:55 AM 37.4 °F - 32.0 °F 81% 30.37 in 10.0 mi Calm Calm - N/A   Clear
2:15 AM 35.6 °F - 32.0 °F 87% 30.36 in 10.0 mi Calm Calm - N/A   Clear
2:35 AM 35.6 °F - 30.2 °F 81% 30.35 in 10.0 mi Calm Calm - N/A   Clear
2:55 AM 35.6 °F - 32.0 °F 87% 30.34 in 10.0 mi Calm Calm - N/A   Clear
3:15 AM 33.8 °F - 32.0 °F 93% 30.34 in 10.0 mi Calm Calm - N/A   Clear
3:35 AM 35.6 °F - 32.0 °F 87% 30.33 in 10.0 mi Calm Calm - N/A   Clear
3:55 AM 33.8 °F - 32.0 °F 93% 30.32 in 10.0 mi Calm Calm - N/A   Clear
4:15 AM 33.8 °F - 32.0 °F 93% 30.32 in 10.0 mi Calm Calm - N/A   Clear
4:35 AM 33.8 °F - 30.2 °F 87% 30.32 in 10.0 mi Calm Calm - N/A   Clear
4:55 AM 33.8 °F - 32.0 °F 93% 30.32 in 10.0 mi Calm Calm - N/A   Clear
6:50 AM 33.8 °F 30.8 °F 30.2 °F 87% 30.34 in 10.0 mi SSE 3.5 mph - N/A   Scattered Clouds
7:50 AM 35.6 °F 31.7 °F 32.0 °F 87% 30.34 in 10.0 mi South 4.6 mph - N/A   Mostly Cloudy
8:50 AM 41.0 °F 39.0 °F 37.4 °F 87% 30.35 in 10.0 mi South 3.5 mph - N/A   Mostly Cloudy
9:50 AM 46.4 °F 44.3 °F 39.2 °F 76% 30.34 in 10.0 mi South 4.6 mph - N/A   Mostly Cloudy
10:50 AM 50.0 °F - 35.6 °F 58% 30.33 in 10.0 mi SSE 17.3 mph - N/A   Mostly Cloudy
11:50 AM 57.2 °F - 37.4 °F 48% 30.30 in 10.0 mi SSE 17.3 mph - N/A   Mostly Cloudy
12:50 PM 57.2 °F - 37.4 °F 48% 30.27 in 10.0 mi SSE 11.5 mph - N/A   Mostly Cloudy
1:50 PM 60.8 °F - 35.6 °F 39% 30.22 in 10.0 mi South 12.7 mph - N/A   Scattered Clouds
2:50 PM 62.6 °F - 33.8 °F 34% 30.17 in 10.0 mi SE 16.1 mph - N/A   Mostly Cloudy
5:50 PM 51.8 °F - 42.8 °F 71% 30.15 in 10.0 mi SSW 11.5 mph - N/A   Overcast
7:50 PM 48.2 °F - 44.6 °F 87% 30.12 in 10.0 mi South 5.8 mph - N/A   Overcast
8:15 PM 46.4 °F 45.2 °F 42.8 °F 87% 30.12 in 10.0 mi South 3.5 mph - N/A   Scattered Clouds
8:35 PM 46.4 °F 44.3 °F 42.8 °F 87% 30.12 in 10.0 mi South 4.6 mph - N/A   Mostly Cloudy
8:50 PM 48.2 °F - 44.6 °F 87% 30.12 in 10.0 mi SSW 5.8 mph - N/A   Overcast
8:55 PM 46.4 °F 45.2 °F 44.6 °F 93% 30.12 in 10.0 mi WSW 3.5 mph - N/A   Overcast
9:15 PM 46.4 °F - 44.6 °F 93% 30.09 in 10.0 mi Calm Calm - N/A   Light Drizzle
9:35 PM 46.4 °F 44.3 °F 44.6 °F 93% 30.10 in 10.0 mi SE 4.6 mph - N/A   Mostly Cloudy
9:55 PM 46.4 °F 41.5 °F 44.6 °F 93% 30.09 in 10.0 mi ESE 10.4 mph - N/A   Overcast
10:15 PM 46.4 °F 42.9 °F 44.6 °F 93% 30.10 in 10.0 mi South 6.9 mph - N/A   Overcast
10:35 PM 46.4 °F 43.5 °F 44.6 °F 93% 30.11 in 10.0 mi South 5.8 mph - N/A   Overcast
10:55 PM 46.4 °F 43.5 °F 44.6 °F 93% 30.10 in 10.0 mi South 5.8 mph - N/A   Overcast
11:15 PM 46.4 °F 42.9 °F 44.6 °F 93% 30.09 in 10.0 mi SSE 6.9 mph - N/A   Overcast
11:35 PM 46.4 °F 42.9 °F 44.6 °F 93% 30.09 in 10.0 mi SSE 6.9 mph - N/A   Overcast
11:55 PM 46.4 °F 41.9 °F 42.8 °F 87% 30.09 in 10.0 mi SSE 9.2 mph 16.1 mph N/A   Overcast